#timestamp,LO_Frequency,Hit,StdDev 
1542758415.7,286046998.8,N
1542758435.6,286046998.6,N
1542758455.4,286046999.7,N
1542758475.3,286046998.6,N
1542758495.1,286046999.5,N
1542758496.0,286046999.5,N
1542758515.8,286046997.0,N
1542758535.7,286046998.7,N
1542758555.5,286046996.6,N
1542758575.3,286046997.8,N
1542758595.2,286046998.0,N
1542758615.0,286046995.0,Y
1542758615.9,286046995.0,P
1542758635.8,286046994.9,N
1542758655.6,286046997.9,N
1542758675.4,286046995.5,N
1542758695.3,286046996.8,N
1542758715.1,286046997.9,N
1542758735.8,286046996.8,N
1542758755.7,286046999.5,N
1542758775.5,286046997.5,N
1542758795.4,286046997.3,N
1542758815.2,286046996.8,N
1542758835.0,286046997.8,N
1542758835.9,286046997.8,N
1542758855.8,286046997.9,N
1542758875.6,286046998.0,N
1542758895.5,286046997.9,N
1542758915.3,286046995.1,Y
1542758935.1,286047000.9,P
1542758955.9,286046999.4,N
1542758975.7,286046999.2,N
1542758995.5,286046999.3,N
1542759015.4,286046999.2,N
1542759035.2,286046999.3,N
1542759055.1,286046999.0,N
1542759056.0,286046999.0,N
1542759075.8,286046996.9,Y
1542759095.6,286046996.5,P
1542759115.5,286046999.5,N
1542759135.3,286046998.8,N
1542759155.2,286046998.5,N
1542759175.9,286047001.2,N
1542759195.7,286047001.2,N
1542759215.6,286046998.8,N
1542759235.4,286046998.7,N
1542759255.2,286046999.4,N
1542759275.1,286047000.8,N
1542759276.0,286047000.8,N
1542759295.8,286046998.1,N
1542759315.7,286046998.6,N
1542759335.5,286046998.2,N
1542759355.3,286047000.0,N
1542759375.2,286047002.7,N
1542759395.0,286047000.2,N
1542759395.9,286047000.2,N
1542759415.7,286047002.4,N
1542759435.6,286047000.6,N
1542759485.5,286046999.9,E
1542759495.4,286047000.3,N
1542759515.2,286047000.1,P
1542759535.1,286047000.0,N
1542759536.0,286047000.0,N
1542759555.8,286047002.2,Y
1542759575.6,286047001.0,P
1542759595.5,286047000.4,N
1542759615.3,286047000.5,N
1542759635.2,286047002.3,Y
1542759655.9,286047004.3,P
1542759675.7,286047004.4,N
1542759695.6,286047003.8,N
1542759715.4,286047004.4,N
1542759735.2,286047004.0,N
1542759755.1,286047003.7,N
1542759756.0,286047003.7,N
1542759775.8,286047004.4,Y
1542759795.7,286047001.1,P
1542759815.5,286047000.6,N
1542759835.3,286047001.1,N
1542759855.2,286047000.6,N
1542759875.0,286047000.3,N
1542759875.9,286047000.3,N
1542759895.8,286046999.9,N
1542759915.6,286046999.7,N
1542759935.4,286047002.1,N
1542759955.3,286047004.2,Y
1542759975.1,286047002.7,P
1542759995.8,286047002.5,N
1542760015.7,286047002.6,P
1542760035.5,286047004.0,Y
1542760055.4,286046998.6,P
1542760075.2,286046998.2,N
1542760095.0,286046998.3,N
1542760095.9,286046998.3,N
1542760115.8,286047001.2,N
1542760135.6,286047000.8,N
1542760155.5,286047000.3,N
1542760175.3,286046999.7,N
1542760195.1,286046999.7,N
1542760215.9,286047002.5,N
1542760235.7,286047002.0,N
1542760255.5,286047002.6,N
1542760275.4,286047002.3,N
1542760295.2,286047002.1,N
1542760315.1,286047002.2,N
1542760316.0,286047002.2,N
1542760335.8,286047002.0,N
1542760355.6,286047002.8,N
1542760375.5,286047002.2,N
1542760395.3,286047001.7,N
1542760415.1,286047001.7,N
1542760435.9,286047004.3,N
1542760455.7,286047004.2,N
1542760475.6,286047005.0,N
1542760495.4,286047004.5,N
1542760515.2,286047005.1,N
1542760535.1,286047005.0,N
1542760536.0,286047005.0,N
1542760555.8,286047004.8,N
1542760575.7,286047005.6,N
1542760595.5,286047005.1,N
1542760615.3,286047005.2,N
1542760635.2,286047006.7,Y
1542760655.0,286047007.5,P
1542760655.9,286047007.5,P
1542760675.7,286047004.7,N
1542760695.6,286047005.7,N
1542760715.4,286047003.3,N
1542760735.3,286047005.2,N
1542760755.1,286047007.6,Y
1542760775.8,286046999.8,P
1542760795.7,286047003.8,N
1542760815.5,286047003.3,N
1542760835.4,286047001.7,N
1542760855.2,286047002.3,N
1542760875.0,286047004.0,N
1542760875.9,286047004.0,N
1542760895.8,286047006.0,Y
1542760915.6,286046999.7,P
1542760935.4,286047000.6,N
1542760955.3,286047001.2,N
1542760975.1,286047000.8,N
1542760995.9,286046999.8,N
1542761015.7,286047002.5,N
1542761035.5,286047002.5,N
1542761055.4,286047002.6,N
1542761075.2,286047001.5,N
1542761095.1,286047003.6,Y
1542761096.0,286047003.6,P
1542761115.8,286047001.8,N
1542761135.6,286047002.1,N
1542761155.5,286047001.5,N
1542761175.3,286047003.9,Y
1542761195.1,286047000.9,P
1542761215.9,286047001.0,N
1542761235.7,286047000.8,N
1542761255.6,286047001.0,N
1542761275.4,286046999.5,N
1542761295.2,286046996.8,Y
1542761315.1,286046997.3,P
1542761316.0,286046997.3,N
1542761335.8,286046995.0,N
1542761355.7,286046997.7,N
1542761375.5,286046999.5,N
1542761395.3,286046996.9,N
1542761415.2,286047001.1,N
1542761435.0,286046999.0,N
1542761435.9,286046999.0,N
1542761455.7,286046998.3,N
1542761475.6,286046997.1,N
1542761495.4,286046996.8,N
1542761515.3,286046996.9,N
1542761535.1,286046997.7,N
1542761536.0,286046997.7,N
1542761555.8,286046997.1,N
1542761575.7,286046994.9,Y
1542761595.5,286046999.3,P
1542761615.4,286046999.6,N
1542761635.2,286046999.3,N
1542761655.0,286047001.2,N
1542761655.9,286047001.2,N
1542761675.8,286046998.6,N
1542761695.6,286046999.0,N
1542761715.5,286046996.5,Y
1542761735.3,286046996.7,P
1542761755.1,286046995.1,P
1542761775.9,286046996.1,N
1542761795.7,286046995.0,Y
1542761815.5,286047000.8,P
1542761835.4,286047000.9,N
1542761855.2,286047000.4,N
1542761875.1,286047000.7,N
1542761876.0,286047000.7,N
1542761895.8,286046999.0,N
1542761915.6,286046996.5,N
1542761935.5,286046996.9,N
1542761955.3,286046999.4,N
1542761975.1,286046998.5,N
1542761995.9,286046998.7,N
